Regional Weather Roundup
Issued by NWS Kansas City/Pleasant Hill, MO

Home | Current Version | Previous Version | Graphics & Text | Print | Product List | Glossary Off
Versions: 1 2 3 4 5 6 7 8 9 10 11 12 13 14 15 16 17 18 19 20 21 22 23 24 25 26 27 28 29 30 31 32 33 34 35 36 37 38 39 40 41 42 43 44 45 46 47 48 49 50

000
ASUS43 KEAX 050911
RWREAX

WEATHER ROUNDUP FOR EASTERN KANSAS AND NORTHWEST MISSOURI
NATIONAL WEATHER SERVICE KANSAS CITY/PLEASANT HILL MO
400 AM CDT SUN JUL 05 2015

KSZ040-057-103>105-MOZ028-029-037-043-051000-
...KANSAS CITY METROPOLITAN AREA...

CITY           SKY/WX    TMP DP  RH WIND       PRES   REMARKS
K.C. INTL      CLEAR     68  64  87 SE9       29.97F
K.C. DOWNTOWN  CLEAR     72  65  78 SE6       29.96F
LEES SUMMIT    CLEAR     69  64  84 SE6       29.99F
OLATHE - IXD   CLEAR     69  65  86 SE8       29.98F
OLATHE - OJC   CLEAR     67  64  90 SE6       29.97F
LAWRENCE       CLEAR     66  63  90 E5        29.97F FOG

$$

MOZ001>008-011>017-020>025-030>033-038>040-044>046-053-054-051000-
...NORTHERN AND CENTRAL MISSOURI...

CITY           SKY/WX    TMP DP  RH WIND       PRES   REMARKS
ST. JOSEPH     CLEAR     69  64  84 S6        29.97F HAZE
MOSBY          SUNNY     64  64 100 CALM      29.98F
HARRISONVILLE  CLEAR     68  66  94 SE3       30.00F
WARRENSBURG    CLEAR     64  63  94 SE5       29.99F
WHITEMAN AFB   CLEAR     67  66  96 SE3       29.99F
CLINTON        CLEAR     68  68 100 E3        30.00F FOG
SEDALIA        PTCLDY    69  65  86 SE6       30.02F FOG
WARSAW           N/A     66  66 100 CALM      30.01F FOG
CHILLICOTHE      N/A     65  63  93 CALM      30.01F
KIRKSVILLE     CLEAR     64  61  90 S3        30.03F FOG

$$

MOZ041-047>049-056>058-063>065-088>090-097-051000-
...EASTERN AND SOUTHERN MISSOURI...

CITY           SKY/WX    TMP DP  RH WIND       PRES   REMARKS
ST. LOUIS INTL CLEAR     68  61  78 E3        30.05S HAZE
SPIRIT OF STL  CLEAR     64  63  96 CALM      30.03F FOG
COLUMBIA       CLEAR     67  65  93 SE7       30.02F
JEFFERSON CITY CLEAR     68  65  90 E3        30.02S
MEXICO         CLEAR    N/A N/A N/A SE3       30.04F HAZE
ROLLA          CLEAR     67  67 100 S6        30.03S FOG
LEBANON        PTCLDY    70  66  88 S7        30.05S FOG
OSAGE BEACH    CLEAR     68  64  88 SE3       30.02F
SPRINGFIELD    CLEAR     71  68  90 SE9       30.02F
BRANSON          N/A     68  68 100 CALM      30.04F
JOPLIN         CLEAR     72  69  90 SE8       29.99F
WEST PLAINS    CLOUDY    70  68  93 CALM      30.06S FOG
MALDEN         FOG       70  68  94 CALM      30.04R VSB<1/4

$$

IAZ060-094-KSZ022-034>040-054-083-096-NEZ052-066-093-051000-
...KANSAS...SOUTHEAST NEBRASKA AND IOWA...

CITY           SKY/WX    TMP DP  RH WIND       PRES   REMARKS
TOPEKA         CLEAR     69  65  86 SE3       29.95F
MANHATTAN      CLEAR     72  66  81 S3        29.93F
EMPORIA        PTCLDY    69  66  90 SE8       29.96F
CHANUTE        CLEAR     70  67  90 SE6       29.97F FOG
WICHITA        PTCLDY    75  68  78 S8        29.93F
OMAHA          MOCLDY    70  62  76 S13       29.93S
LINCOLN        PTCLDY    69  64  84 S10       29.91F
FALLS CITY     MOCLDY    66  63  90 SE5       29.94F
LAMONI         CLEAR     66  62  87 S5        29.99F
DES MOINES     CLEAR     65  59  81 SE7       29.99S

$$



USA.gov is the U.S. government's official web portal to all federal, state and local government web resources and services.